| time (UTC) | temp F | wind direction | speed MPH | gust MPH | rain 1hr in | rain 24hr in | rain mn in | humidity % | barometer mb |
| 20260506050810 | 34 | 301 | 12.0 | 20.0 | 0.00 | 0.48 | 0.46 | 55 | 1008.6 |
| 20260506050428 | 34 | 301 | 12.0 | 20.0 | 0.00 | 0.48 | 0.46 | 55 | 1008.6 |
| 20260506044429 | 35 | 302 | 11.0 | 17.0 | 0.00 | 0.48 | 0.46 | 57 | 1008.5 |
| 20260506043718 | 35 | 305 | 10.0 | 18.0 | 0.00 | 0.48 | 0.46 | 56 | 1008.6 |
| 20260506043428 | 35 | 305 | 10.0 | 18.0 | 0.00 | 0.48 | 0.46 | 56 | 1008.6 |
| 20260506042428 | 35 | 304 | 13.0 | 19.0 | 0.00 | 0.48 | 0.46 | 57 | 1008.6 |
| 20260506041729 | 35 | 301 | 12.0 | 19.0 | 0.00 | 0.48 | 0.46 | 56 | 1008.5 |
| 20260506041428 | 35 | 301 | 12.0 | 19.0 | 0.00 | 0.48 | 0.46 | 56 | 1008.5 |
| 20260506040428 | 35 | 292 | 15.0 | 25.0 | 0.00 | 0.48 | 0.46 | 56 | 1008.3 |
| 20260506035750 | 35 | 293 | 14.0 | 29.0 | 0.00 | 0.48 | 0.46 | 56 | 1008.2 |
| 20260506035428 | 35 | 293 | 14.0 | 29.0 | 0.00 | 0.48 | 0.46 | 56 | 1008.2 |
| 20260506034741 | 35 | 291 | 16.0 | 25.0 | 0.00 | 0.48 | 0.46 | 56 | 1008.1 |
| 20260506034428 | 35 | 291 | 16.0 | 25.0 | 0.00 | 0.48 | 0.46 | 56 | 1008.1 |
| 20260506033603 | 35 | 297 | 15.0 | 21.0 | 0.00 | 0.48 | 0.46 | 56 | 1008.0 |
| 20260506033428 | 35 | 297 | 15.0 | 21.0 | 0.00 | 0.48 | 0.46 | 56 | 1008.0 |
| 20260506032758 | 35 | 297 | 15.0 | 21.0 | 0.00 | 0.48 | 0.46 | 56 | 1007.9 |
| 20260506032428 | 35 | 297 | 15.0 | 21.0 | 0.00 | 0.48 | 0.46 | 56 | 1007.9 |
| 20260506031428 | 35 | 305 | 15.0 | 23.0 | 0.00 | 0.48 | 0.46 | 57 | 1007.9 |
| 20260506030647 | 35 | 305 | 14.0 | 22.0 | 0.00 | 0.48 | 0.46 | 58 | 1007.9 |
| 20260506030428 | 35 | 305 | 14.0 | 22.0 | 0.00 | 0.48 | 0.46 | 58 | 1007.9 |
| 20260506025428 | 35 | 301 | 14.0 | 24.0 | 0.00 | 0.48 | 0.46 | 58 | 1007.7 |
| 20260506024431 | 35 | 288 | 17.0 | 28.0 | 0.00 | 0.48 | 0.46 | 58 | 1007.4 |
| 20260506023701 | 35 | 287 | 21.0 | 33.0 | 0.00 | 0.48 | 0.46 | 58 | 1007.2 |
| 20260506023428 | 35 | 287 | 21.0 | 33.0 | 0.00 | 0.48 | 0.46 | 58 | 1007.2 |
| 20260506021927 | 36 | 279 | 18.0 | 29.0 | 0.00 | 0.48 | 0.46 | 59 | 1007.0 |
| 20260506020927 | 36 | 282 | 20.0 | 28.0 | 0.00 | 0.48 | 0.46 | 60 | 1006.9 |
| 20260506020141 | 36 | 277 | 19.0 | 30.0 | 0.00 | 0.48 | 0.46 | 59 | 1007.0 |
| 20260506015927 | 36 | 277 | 19.0 | 30.0 | 0.00 | 0.48 | 0.46 | 59 | 1007.0 |
| 20260506014927 | 36 | 275 | 16.0 | 28.0 | 0.00 | 0.48 | 0.46 | 59 | 1006.9 |
| 20260506013927 | 37 | 286 | 13.0 | 27.0 | 0.00 | 0.48 | 0.46 | 58 | 1006.9 |
| 20260506013232 | 37 | 272 | 13.0 | 27.0 | 0.00 | 0.48 | 0.46 | 59 | 1006.8 |
| 20260506012927 | 37 | 272 | 13.0 | 27.0 | 0.00 | 0.48 | 0.46 | 59 | 1006.8 |
| 20260506012232 | 38 | 274 | 15.0 | 28.0 | 0.00 | 0.48 | 0.46 | 60 | 1006.8 |
| 20260506011927 | 38 | 274 | 15.0 | 28.0 | 0.00 | 0.48 | 0.46 | 60 | 1006.8 |
| 20260506011257 | 38 | 262 | 11.0 | 25.0 | 0.00 | 0.48 | 0.46 | 59 | 1006.8 |
| 20260506010927 | 38 | 262 | 11.0 | 25.0 | 0.00 | 0.48 | 0.46 | 59 | 1006.8 |
| 20260506010228 | 38 | 288 | 14.0 | 26.0 | 0.00 | 0.48 | 0.46 | 59 | 1006.8 |
| 20260506005927 | 38 | 288 | 14.0 | 26.0 | 0.00 | 0.48 | 0.46 | 59 | 1006.8 |
| 20260506004927 | 38 | 288 | 11.0 | 28.0 | 0.00 | 0.48 | 0.46 | 60 | 1006.7 |
| 20260506003927 | 38 | 276 | 13.0 | 24.0 | 0.00 | 0.48 | 0.46 | 62 | 1006.7 |
| 20260506002927 | 38 | 264 | 9.0 | 26.0 | 0.00 | 0.48 | 0.46 | 63 | 1006.7 |
| 20260506001927 | 38 | 259 | 17.0 | 25.0 | 0.00 | 0.48 | 0.46 | 65 | 1006.6 |
| 20260506000927 | 38 | 247 | 17.0 | 28.0 | 0.00 | 0.48 | 0.46 | 65 | 1006.6 |
| 20260505235927 | 38 | 246 | 16.0 | 28.0 | 0.00 | 0.48 | 0.46 | 63 | 1006.5 |
| 20260505234928 | 38 | 248 | 20.0 | 35.0 | 0.00 | 0.48 | 0.46 | 61 | 1006.4 |
| 20260505233929 | 39 | 252 | 24.0 | 35.0 | 0.00 | 0.48 | 0.46 | 59 | 1006.3 |
| 20260505232928 | 38 | 246 | 19.0 | 30.0 | 0.00 | 0.48 | 0.46 | 57 | 1006.4 |
| 20260505231927 | 38 | 259 | 25.0 | 36.0 | 0.00 | 0.48 | 0.46 | 53 | 1006.3 |
| 20260505230927 | 39 | 258 | 27.0 | 41.0 | 0.00 | 0.48 | 0.46 | 47 | 1006.0 |
| 20260505225927 | 39 | 253 | 24.0 | 40.0 | 0.00 | 0.48 | 0.46 | 50 | 1006.1 |
| 20260505224930 | 41 | 250 | 25.0 | 42.0 | 0.00 | 0.48 | 0.46 | 52 | 1006.0 |
| 20260505223926 | 40 | 255 | 25.0 | 50.0 | 0.00 | 0.48 | 0.46 | 53 | 1006.1 |
| 20260505222926 | 39 | 258 | 22.0 | 39.0 | 0.00 | 0.48 | 0.46 | 56 | 1006.2 |
| 20260505221926 | 38 | 252 | 21.0 | 43.0 | 0.00 | 0.48 | 0.46 | 67 | 1006.2 |
| 20260505220926 | 37 | 250 | 17.0 | 33.0 | 0.00 | 0.48 | 0.46 | 76 | 1006.4 |
| 20260505215928 | 38 | 258 | 25.0 | 39.0 | 0.00 | 0.48 | 0.46 | 78 | 1006.4 |
| 20260505214927 | 37 | 258 | 20.0 | 43.0 | 0.00 | 0.48 | 0.46 | 79 | 1006.5 |
| 20260505213927 | 36 | 260 | 20.0 | 35.0 | 0.00 | 0.48 | 0.46 | 79 | 1006.6 |
| 20260505212928 | 36 | 257 | 22.0 | 39.0 | 0.00 | 0.48 | 0.46 | 79 | 1006.6 |
| 20260505211927 | 36 | 247 | 21.0 | 36.0 | 0.00 | 0.48 | 0.46 | 79 | 1006.8 |
| 20260505210926 | 36 | 271 | 21.0 | 33.0 | 0.00 | 0.48 | 0.46 | 79 | 1006.8 |
| 20260505205928 | 36 | 256 | 20.0 | 31.0 | 0.00 | 0.48 | 0.46 | 79 | 1007.0 |
| 20260505204927 | 36 | 248 | 21.0 | 33.0 | 0.00 | 0.48 | 0.46 | 79 | 1006.8 |
| 20260505203927 | 36 | 251 | 19.0 | 33.0 | 0.00 | 0.48 | 0.46 | 79 | 1007.0 |
| 20260505202928 | 37 | 256 | 23.0 | 37.0 | 0.00 | 0.48 | 0.46 | 79 | 1006.9 |
| 20260505201926 | 37 | 248 | 24.0 | 33.0 | 0.00 | 0.48 | 0.46 | 79 | 1006.9 |
| 20260505200926 | 37 | 252 | 19.0 | 35.0 | 0.00 | 0.48 | 0.46 | 79 | 1007.0 |
| 20260505195926 | 37 | 258 | 22.0 | 34.0 | 0.00 | 0.48 | 0.46 | 79 | 1007.0 |
| 20260505194926 | 37 | 254 | 23.0 | 37.0 | 0.00 | 0.48 | 0.46 | 79 | 1007.1 |
| 20260505193927 | 37 | 257 | 22.0 | 36.0 | 0.00 | 0.48 | 0.46 | 79 | 1007.1 |
| 20260505192927 | 36 | 249 | 20.0 | 36.0 | 0.00 | 0.48 | 0.46 | 79 | 1006.9 |
| 20260505191927 | 36 | 262 | 23.0 | 34.0 | 0.00 | 0.48 | 0.46 | 79 | 1007.2 |
| 20260505190926 | 37 | 255 | 22.0 | 40.0 | 0.00 | 0.48 | 0.46 | 79 | 1007.2 |
| 20260505185926 | 36 | 251 | 14.0 | 39.0 | 0.00 | 0.48 | 0.46 | 79 | 1007.3 |
| 20260505184926 | 37 | 254 | 20.0 | 37.0 | 0.00 | 0.48 | 0.46 | 79 | 1007.3 |
| 20260505183926 | 36 | 259 | 18.0 | 30.0 | 0.00 | 0.48 | 0.46 | 79 | 1007.3 |
| 20260505182926 | 36 | 261 | 19.0 | 32.0 | 0.00 | 0.48 | 0.46 | 79 | 1007.3 |
| 20260505181927 | 37 | 250 | 19.0 | 33.0 | 0.00 | 0.48 | 0.46 | 79 | 1007.4 |
| 20260505180927 | 37 | 254 | 20.0 | 30.0 | 0.00 | 0.48 | 0.46 | 79 | 1007.5 |
| 20260505175927 | 36 | 251 | 20.0 | 30.0 | 0.00 | 0.48 | 0.46 | 79 | 1007.4 |
| 20260505174926 | 37 | 259 | 18.0 | 30.0 | 0.00 | 0.48 | 0.46 | 79 | 1007.5 |
| 20260505173927 | 36 | 248 | 15.0 | 27.0 | 0.00 | 0.48 | 0.46 | 79 | 1007.4 |
| 20260505172928 | 37 | 260 | 18.0 | 27.0 | 0.00 | 0.48 | 0.46 | 79 | 1007.6 |
| 20260505171929 | 36 | 249 | 16.0 | 29.0 | 0.00 | 0.48 | 0.46 | 79 | 1007.5 |
| 20260505170927 | 36 | 238 | 17.0 | 32.0 | 0.00 | 0.48 | 0.46 | 79 | 1007.4 |
| 20260505165926 | 36 | 255 | 20.0 | 35.0 | 0.00 | 0.48 | 0.46 | 79 | 1007.5 |
| 20260505164926 | 36 | 259 | 12.0 | 29.0 | 0.00 | 0.48 | 0.46 | 79 | 1007.7 |
| 20260505163926 | 36 | 263 | 21.0 | 33.0 | 0.00 | 0.48 | 0.46 | 79 | 1007.4 |
| 20260505162926 | 36 | 251 | 18.0 | 30.0 | 0.00 | 0.48 | 0.46 | 79 | 1007.3 |
| 20260505161926 | 36 | 250 | 20.0 | 33.0 | 0.00 | 0.48 | 0.46 | 79 | 1007.1 |
| 20260505160926 | 36 | 262 | 20.0 | 33.0 | 0.02 | 0.48 | 0.46 | 79 | 1007.0 |
| 20260505152927 | 37 | 249 | 18.0 | 29.0 | 0.19 | 0.48 | 0.46 | 79 | 1006.9 |
| 20260505152256 | 37 | 245 | 22.0 | 30.0 | 0.24 | 0.48 | 0.46 | 79 | 1007.1 |
| 20260505151926 | 37 | 245 | 22.0 | 30.0 | 0.24 | 0.48 | 0.46 | 79 | 1007.1 |
| 20260505150927 | 37 | 243 | 17.0 | 27.0 | 0.23 | 0.46 | 0.44 | 79 | 1007.0 |
| 20260505123925 | 37 | 250 | 8.0 | 13.0 | 0.02 | 0.09 | 0.07 | 78 | 1006.7 |
| 20260505122925 | 37 | 250 | 9.0 | 14.0 | 0.02 | 0.09 | 0.07 | 78 | 1006.6 |
| 20260505121927 | 36 | 257 | 10.0 | 15.0 | 0.01 | 0.08 | 0.06 | 78 | 1006.6 |
| 20260505120926 | 36 | 256 | 9.0 | 18.0 | 0.01 | 0.08 | 0.06 | 78 | 1006.7 |
| 20260505115928 | 36 | 254 | 11.0 | 18.0 | 0.00 | 0.07 | 0.05 | 78 | 1006.6 |
| 20260505114925 | 36 | 243 | 11.0 | 17.0 | 0.00 | 0.07 | 0.05 | 78 | 1006.7 |
| 20260505113926 | 36 | 258 | 11.0 | 18.0 | 0.01 | 0.07 | 0.05 | 78 | 1006.7 |
| 20260505112925 | 36 | 260 | 11.0 | 16.0 | 0.01 | 0.07 | 0.05 | 78 | 1006.9 |
| 20260505111926 | 37 | 250 | 10.0 | 19.0 | 0.01 | 0.07 | 0.05 | 78 | 1006.8 |
| 20260505110929 | 36 | 253 | 12.0 | 20.0 | 0.02 | 0.07 | 0.05 | 78 | 1006.9 |
| 20260505101817 | 37 | 256 | 15.0 | 25.0 | 0.02 | 0.05 | 0.03 | 78 | 1007.3 |
| 20260505100925 | 37 | 256 | 15.0 | 25.0 | 0.02 | 0.05 | 0.03 | 78 | 1007.3 |
| 20260505095926 | 36 | 252 | 17.0 | 28.0 | 0.02 | 0.05 | 0.03 | 78 | 1007.3 |
| 20260505094925 | 37 | 247 | 16.0 | 27.0 | 0.02 | 0.05 | 0.03 | 78 | 1007.4 |
| 20260505093925 | 37 | 252 | 18.0 | 28.0 | 0.02 | 0.05 | 0.03 | 78 | 1007.5 |
| 20260505092925 | 37 | 255 | 17.0 | 26.0 | 0.01 | 0.04 | 0.02 | 78 | 1007.6 |
| 20260505091925 | 37 | 258 | 14.0 | 24.0 | 0.02 | 0.04 | 0.02 | 78 | 1007.8 |
| 20260505090927 | 37 | 254 | 14.0 | 25.0 | 0.01 | 0.03 | 0.01 | 78 | 1007.8 |
| 20260505085928 | 37 | 250 | 14.0 | 28.0 | 0.01 | 0.03 | 0.01 | 78 | 1008.0 |
| 20260505084925 | 37 | 252 | 19.0 | 29.0 | 0.02 | 0.03 | 0.01 | 78 | 1008.2 |
| 20260505083522 | 37 | 247 | 20.0 | 31.0 | 0.02 | 0.03 | 0.01 | 78 | 1008.2 |
| 20260505082522 | 38 | 245 | 19.0 | 27.0 | 0.03 | 0.03 | 0.01 | 78 | 1008.3 |
| 20260505081522 | 38 | 245 | 19.0 | 28.0 | 0.02 | 0.02 | 0.00 | 78 | 1008.5 |
| 20260505080523 | 38 | 247 | 19.0 | 30.0 | 0.02 | 0.02 | 0.02 | 78 | 1008.7 |
| 20260505075522 | 38 | 244 | 22.0 | 33.0 | 0.01 | 0.01 | 0.01 | 78 | 1008.6 |
| 20260505074522 | 38 | 249 | 23.0 | 34.0 | 0.01 | 0.01 | 0.01 | 78 | 1008.5 |
| 20260505073522 | 37 | 250 | 21.0 | 32.0 | 0.01 | 0.01 | 0.01 | 78 | 1008.8 |
| 20260505071522 | 37 | 260 | 23.0 | 36.0 | 0.00 | 0.00 | 0.00 | 78 | 1008.8 |
| 20260505070522 | 36 | 253 | 25.0 | 36.0 | 0.00 | 0.00 | 0.00 | 78 | 1008.6 |
| 20260505065524 | 37 | 250 | 24.0 | 31.0 | 0.00 | 0.00 | 0.00 | 78 | 1008.6 |
| 20260505065025 | 37 | 252 | 26.0 | 35.0 | 0.00 | 0.00 | 0.00 | 78 | 1008.5 |
| 20260505064522 | 37 | 252 | 26.0 | 35.0 | 0.00 | 0.00 | 0.00 | 78 | 1008.5 |
| 20260505063522 | 36 | 254 | 23.0 | 33.0 | 0.00 | 0.00 | 0.00 | 77 | 1008.6 |
| 20260505062522 | 36 | 257 | 24.0 | 35.0 | 0.00 | 0.00 | 0.00 | 77 | 1008.8 |
| 20260505061522 | 36 | 254 | 23.0 | 36.0 | 0.00 | 0.00 | 0.00 | 77 | 1008.8 |
| 20260505060522 | 36 | 258 | 25.0 | 35.0 | 0.00 | 0.00 | 0.00 | 77 | 1008.9 |
| 20260505055522 | 36 | 262 | 24.0 | 40.0 | 0.00 | 0.00 | 0.00 | 77 | 1009.0 |